User: anonymous   Login
Location: Unspecified
(0.0000°N, 0.0000°E)
Time: 09:22:04
(UTC+00:00)
Language:

Kosmos-2180 - Orbit

View from above orbital plane
View from above orbital plane
View from above satellite
View from above satellite

Ground track
Ground track

The orbit is defined by the following mean orbital elements,

1 21875U          26104.20243328 +.00000000 +00000-0 +35168-4 0 00000
2 21875  82.9231 268.9269 0038312 147.8594  25.2421 13.73959725    04
Epoch (UTC): 14 April 2026 04:51:30
Eccentricity: 0.0038312
inclination: 82.9231°
perigee height: 957 km
apogee height: 1014 km
right ascension of ascending node: 268.9269°
argument of perigee: 147.8594°
revolutions per day: 13.73959725
mean anomaly at epoch: 25.2421°

The dashed part of the orbit path shows where the satellite is in the earth's shadow,  

DLR